Tracking 29892 objects as of 21-Nov-2024
HD Live streaming from Space Station
objects crossing your sky now

STARLINK-31085

Track STARLINK-31085 now!
10-day predictions
STARLINK-31085 is classified as:


NORAD ID: 58609
Int'l Code: 2023-200W
Perigee: 565.4 km
Apogee: 567.1 km
Inclination: 43.0 °
Period: 95.8 minutes
Semi major axis: 6937 km
RCS: Unknown
Launch date: December 19, 2023
Source: United States (US)
Launch site: AIR FORCE EASTERN TEST RANGE (AFETR)
Your satellite tracking list
Your tracking list is empty




NASA's NSSDC Master Catalog

Two Line Element Set (TLE):
1 58609U 23200W   24326.07579833 -.00000354  00000-0 -11173-4 0  9995
2 58609  43.0034 223.4676 0001216 268.5941  91.4762 15.02528664 52385
Source of the keplerian elements: AFSPC